Date String (YYYY-MM-DD hh:mm:ss) UTC,Instrument flags,Ambient pressure (hPa),Sample flow (lpm),Bypass flow (lpm),Sample temperature (°C),Ambient temperature (°C),ASC tube jacket temperature (°C),LED temperature (°C),Box temperature (°C),Sample RH (%),Span deviation,Mass concentration (μg/m³),Mass concentration (μg/m³),Mass concentration (μg/m³)
DateTimeUTC,F1_M11,P_M11,Q1_M11,Q2_M11,T1_M11,T2_M11,T3_M11,T4_M11,T5_M11,U1_M11,ZSPAN_M11,X0_M11,X2_M11,X1_M11
2021-11-30 13:00:00,,0831.5,5.00,0.00,26.7,25.9,00.0,35.8,28.4,11.0,0000.0,0029.02,0005.31,0002.56
2021-11-30 13:01:00,,0831.5,5.00,0.00,26.7,25.9,00.0,35.8,28.4,11.0,0000.0,0029.88,0005.23,0002.52
2021-11-30 13:02:00,,0831.4,5.00,0.00,26.7,25.8,00.0,35.8,28.4,11.0,0000.0,0029.10,0005.17,0002.47
2021-11-30 13:03:00,,0831.5,4.99,0.00,26.7,25.8,00.0,35.8,28.4,11.1,0000.0,0030.87,0005.21,0002.44
2021-11-30 13:04:00,,0831.5,5.01,0.00,26.7,25.8,00.0,35.8,28.4,11.1,0000.0,0030.75,0005.18,0002.42
2021-11-30 13:05:00,,0831.6,4.99,0.00,26.7,25.8,00.0,35.8,28.4,11.1,0000.0,0029.72,0005.17,0002.41
2021-11-30 13:06:00,,0831.5,5.00,0.00,26.6,25.8,00.0,35.8,28.3,11.2,0000.0,0031.69,0005.19,0002.37
2021-11-30 13:07:00,,0831.6,5.01,0.00,26.6,25.8,00.0,35.8,28.3,11.3,0000.0,0031.79,0005.15,0002.32
2021-11-30 13:08:00,,0831.7,5.00,0.00,26.6,25.8,00.0,35.8,28.3,11.2,0000.0,0031.85,0005.10,0002.27
2021-11-30 13:09:00,,0831.7,4.99,0.00,26.6,25.8,00.0,35.7,28.3,11.2,0000.0,0033.80,0005.05,0002.23
2021-11-30 13:10:00,,0831.7,5.01,0.00,26.6,25.8,00.0,35.7,28.3,11.2,0000.0,0033.85,0005.06,0002.19
2021-11-30 13:11:00,,0831.7,4.99,0.00,26.6,25.8,00.0,35.7,28.3,11.2,0000.0,0032.50,0005.04,0002.16
2021-11-30 13:12:00,,0831.7,5.01,0.00,26.6,25.8,00.0,35.7,28.3,11.2,0000.0,0032.17,0005.08,0002.15
2021-11-30 13:13:00,,0831.8,4.99,0.00,26.6,25.7,00.0,35.7,28.3,11.3,0000.0,0033.57,0005.21,0002.14
2021-11-30 13:14:00,,0831.8,4.99,0.00,26.6,25.7,00.0,35.7,28.3,11.3,0000.0,0032.81,0005.19,0002.11
2021-11-30 13:15:00,,0832.0,5.01,0.00,26.5,25.7,00.0,35.7,28.2,11.3,0000.0,0032.71,0005.18,0002.10
2021-11-30 13:16:00,,0832.0,4.99,0.00,26.5,25.6,00.0,35.7,28.2,11.4,0000.0,0033.33,0005.23,0002.08
2021-11-30 13:17:00,,0832.0,4.99,0.00,26.5,25.6,00.0,35.6,28.1,11.4,0000.0,0031.01,0005.30,0002.06
2021-11-30 13:18:00,,0832.0,5.00,0.00,26.4,25.5,00.0,35.6,28.1,11.4,0000.0,0031.77,0005.41,0002.07
2021-11-30 13:19:00,,0831.9,5.00,0.00,26.4,25.5,00.0,35.6,28.1,11.4,0000.0,0030.59,0005.42,0002.07
2021-11-30 13:20:00,,0831.9,5.02,0.00,26.4,25.5,00.0,35.6,28.1,11.5,0000.0,0029.70,0005.38,0002.06
2021-11-30 13:21:00,,0832.1,5.00,0.00,26.4,25.5,00.0,35.6,28.1,11.5,0000.0,0030.36,0005.41,0002.06
2021-11-30 13:22:00,,0832.0,4.99,0.00,26.4,25.4,00.0,35.6,28.1,11.5,0000.0,0030.93,0005.46,0002.05
2021-11-30 13:23:00,,0832.0,5.00,0.00,26.4,25.5,00.0,35.5,28.1,11.5,0000.0,0031.04,0005.51,0002.05
2021-11-30 13:24:00,,0831.9,5.00,0.00,26.4,25.5,00.0,35.5,28.1,11.5,0000.0,0029.41,0005.39,0002.06
2021-11-30 13:25:00,,0831.9,4.99,0.00,26.4,25.4,00.0,35.5,28.0,11.6,0000.0,0029.95,0005.39,0002.04
2021-11-30 13:26:00,,0832.0,5.01,0.00,26.3,25.4,00.0,35.5,28.0,11.6,0000.0,0031.64,0005.51,0002.02
2021-11-30 13:27:00,,0832.1,4.99,0.00,26.3,25.4,00.0,35.5,28.0,11.6,0000.0,0032.25,0005.55,0002.02
2021-11-30 13:28:00,,0832.1,5.01,0.00,26.3,25.3,00.0,35.5,28.0,11.6,0000.0,0032.94,0005.54,0002.01
2021-11-30 13:29:00,,0832.1,5.00,0.00,26.3,25.3,00.0,35.4,28.0,11.7,0000.0,0032.87,0005.49,0001.97
2021-11-30 13:30:00,,0832.1,4.98,0.00,26.3,25.3,00.0,35.4,27.9,11.7,0000.0,0033.39,0005.50,0001.95
2021-11-30 13:31:00,,0832.1,5.00,0.00,26.2,25.3,00.0,35.4,27.9,11.7,0000.0,0032.91,0005.49,0001.94
2021-11-30 13:32:00,,0832.1,5.01,0.00,26.2,25.3,00.0,35.4,27.9,11.8,0000.0,0034.41,0005.46,0001.91
2021-11-30 13:33:00,,0832.1,4.99,0.00,26.2,25.3,00.0,35.4,27.9,11.7,0000.0,0035.10,0005.42,0001.89
2021-11-30 13:34:00,,0832.0,5.01,0.00,26.2,25.3,00.0,35.4,27.9,11.8,0000.0,0035.50,0005.33,0001.87
2021-11-30 13:35:00,,0832.0,5.02,0.00,26.2,25.3,00.0,35.4,27.9,11.8,0000.0,0036.82,0005.33,0001.85
2021-11-30 13:36:00,,0832.0,4.98,0.00,26.2,25.3,00.0,35.3,27.9,11.8,0000.0,0035.96,0005.36,0001.86
2021-11-30 13:37:00,,0832.1,5.01,0.00,26.2,25.3,00.0,35.3,27.9,11.8,0000.0,0035.45,0005.31,0001.88
2021-11-30 13:38:00,,0832.2,4.99,0.00,26.2,25.3,00.0,35.3,27.9,11.8,0000.0,0036.03,0005.23,0001.87
2021-11-30 13:39:00,,0832.2,5.02,0.00,26.1,25.2,00.0,35.3,27.9,11.9,0000.0,0035.82,0005.22,0001.89
2021-11-30 13:40:00,,0832.1,4.99,0.00,26.1,25.2,00.0,35.3,27.8,11.9,0000.0,0036.06,0005.24,0001.91
2021-11-30 13:41:00,,0832.1,4.99,0.00,26.1,25.2,00.0,35.3,27.8,11.9,0000.0,0036.33,0005.25,0001.91
2021-11-30 13:42:00,,0832.1,5.01,0.00,26.1,25.2,00.0,35.3,27.8,11.9,0000.0,0037.57,0005.33,0001.94
2021-11-30 13:43:00,,0832.1,5.00,0.00,26.1,25.2,00.0,35.2,27.8,12.0,0000.0,0035.81,0005.27,0001.96
2021-11-30 13:44:00,,0832.2,4.99,0.00,26.1,25.2,00.0,35.2,27.8,12.1,0000.0,0035.51,0005.29,0001.97
2021-11-30 13:45:00,,0832.2,5.00,0.00,26.1,25.2,00.0,35.2,27.8,12.1,0000.0,0035.24,0005.36,0002.01
2021-11-30 13:46:00,,0832.1,5.00,0.00,26.0,25.1,00.0,35.2,27.7,12.2,0000.0,0034.96,0005.44,0002.02
2021-11-30 13:47:00,,0832.2,5.00,0.00,26.0,25.1,00.0,35.2,27.7,12.2,0000.0,0035.13,0005.35,0002.01
2021-11-30 13:48:00,,0832.2,4.99,0.00,26.0,25.0,00.0,35.2,27.6,12.2,0000.0,0034.23,0005.31,0002.01
2021-11-30 13:49:00,,0832.2,5.02,0.00,25.9,25.0,00.0,35.1,27.6,12.2,0000.0,0032.47,0005.28,0002.01
2021-11-30 13:50:00,,0832.3,4.99,0.00,25.9,25.0,00.0,35.1,27.6,12.3,0000.0,0031.92,0005.24,0002.00
2021-11-30 13:51:00,,0832.3,5.00,0.00,25.9,25.0,00.0,35.1,27.6,12.3,0000.0,0031.60,0005.16,0001.97
2021-11-30 13:52:00,,0832.3,5.01,0.00,25.9,25.0,00.0,35.1,27.6,12.3,0000.0,0030.57,0005.09,0001.96
2021-11-30 13:53:00,,0832.4,4.99,0.00,25.9,24.9,00.0,35.1,27.6,12.3,0000.0,0028.69,0005.05,0001.95
2021-11-30 13:54:00,,0832.4,5.00,0.00,25.9,24.9,00.0,35.1,27.6,12.3,0000.0,0029.27,0005.08,0001.94
2021-11-30 13:55:00,,0832.4,5.01,0.00,25.8,24.9,00.0,35.0,27.6,12.3,0000.0,0029.41,0005.08,0001.94
2021-11-30 13:56:00,,0832.4,4.99,0.00,25.8,24.9,00.0,35.0,27.6,12.2,0000.0,0029.73,0005.00,0001.91
2021-11-30 13:57:00,,0832.4,5.01,0.00,25.8,24.9,00.0,35.0,27.6,12.2,0000.0,0030.67,0004.85,0001.88
2021-11-30 13:58:00,,0832.5,4.99,0.00,25.8,25.0,00.0,35.0,27.6,12.2,0000.0,0031.12,0004.81,0001.88
2021-11-30 13:59:00,,0832.5,5.01,0.00,25.8,25.0,00.0,35.0,27.6,12.2,0000.0,0031.21,0004.76,0001.85
